sat.trackr.live / text

‹ back to catalog

RIGIDSPHERE 2 (LCS 4)

NORAD 5398 · 1971-067E

PAYLOAD ACTIVE UNKNOWN

§ Identity

Operator
Country
US
Launch date
1971-08-07
Launch site
AFWTR
Launch vehicle
Mass (kg)
RCS (m²)
0.95

Purposes: military

External: N2YO · Heavens-Above · Gunter

§ Orbital elements

Epoch: 2026-09-20T04:21:27.103680Z

Period
100.14 min
Inclination
87.6204°
Eccentricity
0.0057429
Mean motion
14.37959703 rev/d
Perigee alt
724.2 km
Apogee alt
806.3 km
Semi-major
7,143.4 km
B*
1.0766e-4
RAAN
312.4428°
Arg perigee
277.8368°
Mean anomaly
81.6314°
Rev number
88,753

§ Raw data

RIGIDSPHERE 2 (LCS 4)1 05398U 71067E   26263.18156370  .00000349  00000+0  10766-3 0  99942 05398  87.6204 312.4428 0057429 277.8368  81.6314 14.37959703887538

JSON: /api/v1/satellites/5398 · /tle

For live sub-satellite position, see the globe view (requires WebGL).

§ Visibility from observer

Set your observer location to see the next 7 days of passes ≥ 10°. The values pass through the URL so the page stays shareable.

No JS? Fill the form by hand. The geolocation button needs JavaScript.